www.pogodaiklimat.ru

Погода и климат >> Архив погоды >> Буркина-Фасо >> Fada N`Gourma


ПОГОДА в Fada N`Gourma

  • Прогноз погоды в Fada N`Gourma
  • Монитор погоды в Fada N`Gourma
  • Климат города

АРХИВ ПОГОДЫ в Fada N`Gourma

Время (UTC), дата Ветер
(напр.,м/с)
 
Видим.   Явления Облачность Т
(С)
Тd
(С)
f
(%)
Тe
(С)
Тes
(С)
Комфортность P
(гПа)
Po
(гПа)
Тmin
(С)
Tmax
(С)
R
(мм)
R24
(мм)
S
(см)
06 23.04 ЮВ 3 10 км 9/0
[Ac trans Ci sp]
+30.2 +20.1 55 +37 +37 очень
душно
1008.0 974.2 +30.2
09 23.04 З 6 10 км 9/0
[Ci sp]
+33.6 +20.1 45 +40 +43 очень
душно
1010.6 976.7
12 23.04 Ю 5 10 км 9/1 800 м
[Sc Ci sp]
+37.5 +20.7 38 +44 +52 опасность
перегрева
1008.6 975.0
15 23.04 З 1 10 км 9/1 800 м
[Cu Sc Ci sp]
+39.3 +19.2 31 +44 +54 опасность
перегрева
1005.4 971.9
18 23.04 Ю 4 10 км 9/1 800 м
[Cb cap Ci sp]
+33.4 +19.1 43 +39 +39 очень
душно
1005.8 972.0 +39.8
00 24.04 ЮЗ 2 10 км 9/0
[Ci sp]
+32.7 +15.4 35 +35 +35 душно 1007.6 974.0
03 24.04 ЮЗ 6 10 км 9/0
[Ci sp]
+29.2 +18.9 54 +35 +35 очень
душно
1008.1 974.5
06 24.04 Ю 8 10 км гроза без осадков 9/3 800 м
[Cb cap Ci sp]
+27.0 +19.6 64 +33 +33 очень
душно
1009.8 975.7 +27.0
09 24.04 ЮЗ 3 5000 м гроза без осадков 9/1 1200 м
[Cb cap Ac As Ci sp]
+31.4 +19.6 50 +37 +42 очень
душно
1010.0 975.9
12 24.04 ЮЗ 4 10 км {гроза} 9/0
[Ac trans Ci sp]
+38.3 +17.8 30 +41 +50 опасность
перегрева
1008.5 975.0
15 24.04 С 3 10 км 9/1 800 м
[Cu Sc Ci sp]
+40.5 +16.2 24 +42 +49 опасность
перегрева
1005.3 971.8
18 24.04 штиль 0 10 км 9/3 800 м
[Sc Ci sp]
+38.8 +16.6 27 +41 +41 опасность
перегрева
1005.1 971.4 +41.6
00 25.04 ЮЗ 4 10 км 9/0
[Ci sp]
+33.5 +16.3 36 +36 +36 очень
душно
1006.8 973.4
03 25.04 Ю 5 10 км 9/0
[Ci sp]
+31.0 +20.9 55 +38 +38 очень
душно
1005.9 972.5
06 25.04 ЮЗ 3 10 км 9/0
[Ac trans Ci sp]
+30.1 +21.0 58 +37 +37 очень
душно
1007.4 973.8 +30.1
09 25.04 ЮЗ 5 10 км 9/0
[Ci sp]
+34.2 +19.7 43 +40 +45 очень
душно
1009.2 975.5
12 25.04 СЗ 4 10 км 9/1 800 м
[Sc Ci sp]
+39.2 +20.0 33 +45 +55 опасность
перегрева
1007.1 973.7
15 25.04 В 2 10 км 9/4 800 м
[Cu Sc Ci sp]
+40.8 +15.8 23 +42 +48 опасность
перегрева
1003.6 970.2
18 25.04 З 3 10 км гроза без осадков 9/3 800 м
[Cb cap Ac As Ci sp]
+34.0 +17.4 37 +37 +37 очень
душно
1003.7 970.0 +42.1
00 26.04 З 4 10 км в посл. час гроза {дождь} 9/0
[Ac trans Ci sp]
+30.4 +20.3 55 +37 +37 очень
душно
1006.9 973.4
03 26.04 ЮЗ 3 10 км 9/0
[Ci sp]
+29.2 +19.8 57 +35 +35 очень
душно
1005.5 972.1
06 26.04 ЮЗ 2 10 км 9/0
[Ci sp]
+28.2 +21.3 66 +36 +36 очень
душно
1007.2 973.2 +28.2
09 26.04 З 5 10 км 9/0
[Ac trans Ci sp]
+31.5 +21.3 55 +39 +44 очень
душно
1009.8 975.8
12 26.04 ЮЗ 4 10 км 9/0
[Ci sp]
+37.1 +19.7 36 +42 +54 опасность
перегрева
1008.4 974.7
15 26.04 ЮЗ 2 10 км 9/1 800 м
[Sc Ci sp]
+39.9 +18.9 30 +44 +53 опасность
перегрева
1005.2 971.9
18 26.04 ЮВ 2 10 км 9/3 800 м
[Cb cap Ci sp]
+38.2 +19.1 33 +43 +43 опасность
перегрева
1005.2 971.5 +41.2
00 27.04 Ю 4 10 км 9/0
[Ci sp]
+32.9 +20.1 47 +39 +39 очень
душно
1008.0 974.4
03 27.04 Ю 6 10 км 9/0
[Ci sp]
+31.0 +21.6 57 +39 +39 очень
душно
1006.9 973.4
06 27.04 ЮЗ 3 10 км 9/0
[Ac trans Ci sp]
+29.4 +21.4 62 +37 +37 очень
душно
1009.2 975.5 +29.4
09 27.04 Ю 7 10 км 9/0
[Ac trans Ci sp]
+31.8 +21.8 55 +40 +42 очень
душно
1011.0 977.1
12 27.04 ЮЗ 4 10 км 9/0
[Ci sp]
+36.0 +21.7 44 +44 +56 опасность
перегрева
1009.1 975.4
15 27.04 З 2 10 км 9/4 800 м
[Sc Ci sp]
+39.3 +20.4 34 +45 +51 опасность
перегрева
1006.2 972.7
18 27.04 штиль 0 10 км 9/4 800 м
[Cb cap Ci sp]
+33.4 +19.4 44 +39 +39 очень
душно
1006.7 972.8 +39.8
00 28.04 ЮЗ 4 10 км 9/0
[Ci sp]
+30.0 +20.4 56 +37 +37 очень
душно
1008.8 975.0
03 28.04 Ю 3 10 км 9/0
[Ci sp]
+28.7 +20.1 60 +35 +35 очень
душно
1007.4 973.8
06 28.04 ЮЗ 3 10 км 9/0
[Ac As Ci sp]
+29.9 +20.1 56 +36 +36 очень
душно
1009.0 975.1 +28.7
09 28.04 ЮЗ 6 10 км 9/0
[Ac As]
+31.3 +21.1 55 +39 +41 очень
душно
1011.6 977.5
12 28.04 ЮЗ 7 10 км 9/0
[Ci sp]
+36.4 +20.6 40 +43 +48 опасность
перегрева
1009.3 975.5
15 28.04 ЮЗ 5 10 км 9/0
[Ci sp]
+37.5 +20.4 37 +43 +48 опасность
перегрева
1006.8 973.0
18 28.04 ЮЗ 3 10 км 9/0
[Ci sp]
+35.7 +20.8 42 +43 +43 опасность
перегрева
1006.4 972.7 +38.0
00 29.04 Ю 4 10 км 9/0
[Ci sp]
+31.7 +21.4 54 +39 +39 очень
душно
1008.0 974.3
03 29.04 Ю 4 10 км 9/0
[Ci sp]
+30.3 +21.1 58 +38 +38 очень
душно
1006.9 973.3
06 29.04 Ю 2 10 км 9/0
[Ci sp]
+28.7 +21.4 65 +37 +37 очень
душно
1008.9 975.0 +28.7
09 29.04 Ю 4 10 км 9/0
[Ci sp]
+33.4 +21.0 48 +41 +47 опасность
перегрева
1009.7 975.9
12 29.04 Ю 5 10 км 9/0
[Ci sp]
+37.6 +20.7 38 +44 +53 опасность
перегрева
1008.3 974.7
15 29.04 З 3 10 км 9/1 800 м
[Cu Sc Ci sp]
+39.7 +20.5 33 +45 +52 опасность
перегрева
1005.7 972.2
18 29.04 Ю 2 10 км гроза, ливневой дождь 9/4 800 м
[Cb cap Ac As Ci sp]
+39.7 +22.4 37 +48 +48 опасность
перегрева
1005.3 971.7 +40.4 0.9
00 30.04 ЮЗ 4 10 км в посл. час гроза {дождь} 9/0
[Ac As]
+26.5 +20.4 69 +33 +33 очень
душно
1008.5 974.6

 

Местоположение метеостанции Fada N`Gourma (Буркина-Фасо): широта 12.03 долгота 0.37 высота над уровнем моря 309 м.

В архиве по умолчанию представлена погода в Fada N`Gourma за последнюю неделю. Архивные данные за месяц целиком и за предыдущие месяцы, начиная с января 2011 года, Вы можете получить, выбрав интересующий диапазон дат из раскрывающегося списка и нажав кнопку "Ввод!".

Внимание! Время в таблицах - всемирное. Для получения местного времени необходимо прибавить поправку, которая в Fada N`Gourma равна 0 ч.

Смотрите также архив погоды в соседних городах и на ближайших метеорологических станциях:

Погода в Dapaon (Того) (129 км)
Погода в Mango (Того) (185 км)
Погода в Po (Буркина-Фасо) (192 км)
Погода в Navrongo (Гана) (204 км)
Погода в Ouagadougou (Буркина-Фасо) (209 км)
Погода в Natitingou (Бенин) (220 км)
Погода в Dori (Буркина-Фасо) (227 км)
Погода в Niamey-Aero (Нигер) (253 км)
Погода в Niamtougou (Того) (264 км)
Погода в Tillabery (Нигер) (268 км)

Пояснения к столбцам:

Ветер - указаны скорость ветра в м/с - средняя за 10 мин, порывы в срок и между сроками (в фигурных скобках) и направление, откуда дует ветер: С - северный, СВ - северо-восточный, В - восточный, ЮВ - юго-восточный, Ю - южный, ЮЗ - юго-западный, З - западный, СЗ - северо-западный.
Видимость - горизонтальная дальность видимости в метрах или километрах. При видимости от 1 до 10 км при отсутствии осадков обычно наблюдается дымка, при ухудшении видимости до 1 км и менее - туман. В сухую погоду видимость может ухудшаться дымом, пылью или мглою.
Явления - указаны атмосферные явления, наблюдавшиеся в срок или в последний час перед сроком; фигурными скобками обозначены явления, наблюдавшиеся между сроками (за 1-3 часа до срока); квадратными скобками обозначены град или гололедные отложения с указанием их диаметра в мм.
Облачность - указаны через наклонную черту общая и нижняя облачность в баллах и высота нижней границы облаков в метрах; квадратными скобками обозначены формы облаков: Ci - перистые, Cs - перисто-слоистые, Cc - перисто-кучевые, Ac - высококучевые, As - высокослоистые, Sc - слоисто-кучевые, Ns - слоисто-дождевые, Cu - кучевые, Cb - кучево-дождевые. Подробнее классификацию облаков см. в Атласе облаков (PDF).
T - Температура воздуха - температура, измеренная на высоте 2 м над землей.
Td - Температура точки росы - температура, при понижении до которой содержащийся в воздухе водяной пар достигнет насыщения.
f - Относительная влажность воздуха - влажноcть воздуха, измеренная на высоте 2 м над землей.
Te - Эффективная температура - температура, которую ощущает одетый по сезону человек в тени. Характеристика душности погоды. При расчете учитывается влияние влажности воздуха и скорости ветра на теплоощущения человека.
Tes - Эффективная температура на солнце - температура, которую ощущает человек, с поправкой на солнечный нагрев. Характеристика знойности погоды. Зависит от высоты солнца над горизонтом, облачности и скорости ветра. Ночью, в пасмурную погоду, а также при ветре 12 м/с и более поправка равна нулю.
P - Атмосферное давление - приведенное к уровню моря атмосферное давление.
Po - Атмосферное давление - измеренное на уровне метеостанции атмосферное давление.
Tmin - Минимальная температура - минимум температуры воздуха на высоте 2 м над землей.
Tmax - Максимальная температура - максимум температуры воздуха на высоте 2 м над землей.
R - Количество осадков - Количество выпавших осадков за период времени, мм. При наведении курсора мыши на число - период времени, за который выпало указанное количество осадков.
R24 - Количество осадков - Количество выпавших осадков за 24 часа, мм.
S - Снежный покров - Высота снежного покрова, см. При наведении курсора мыши на число - состояние снежного покрова и степень покрытия местности в баллах.